| time (UTC) | temp F | wind direction | speed MPH | gust MPH | rain 1hr in | rain 24hr in | rain mn in | humidity % | barometer mb |
| 20260505093008 | 64 | 340 | 1.0 | 2.0 | 0.00 | 0.00 | 0.00 | 64 | 996.1 |
| 20260505092519 | 64 | 234 | 1.0 | 2.0 | 0.00 | 0.00 | 0.00 | 64 | 996.0 |
| 20260505092514 | 64 | 250 | 1.0 | 2.0 | 0.00 | 0.00 | 0.00 | 64 | 996.0 |
| 20260505092019 | 64 | 295 | 1.0 | 3.0 | 0.00 | 0.00 | 0.00 | 63 | 995.8 |
| 20260505091520 | 64 | 245 | 1.0 | 4.0 | 0.00 | 0.00 | 0.00 | 62 | 995.6 |
| 20260505091031 | 64 | 178 | 2.0 | 4.0 | 0.00 | 0.00 | 0.00 | 62 | 995.4 |
| 20260505091009 | 64 | 213 | 2.0 | 4.0 | 0.00 | 0.00 | 0.00 | 62 | 995.4 |
| 20260505090520 | 64 | 223 | 2.0 | 5.0 | 0.00 | 0.00 | 0.00 | 62 | 995.3 |
| 20260505090021 | 64 | 201 | 2.0 | 5.0 | 0.00 | 0.00 | 0.00 | 62 | 995.2 |
| 20260505090008 | 64 | 213 | 2.0 | 5.0 | 0.00 | 0.00 | 0.00 | 62 | 995.2 |
| 20260505085519 | 65 | 240 | 2.0 | 6.0 | 0.00 | 0.00 | 0.00 | 62 | 995.2 |
| 20260505085019 | 65 | 217 | 3.0 | 6.0 | 0.00 | 0.00 | 0.00 | 62 | 995.0 |
| 20260505085008 | 65 | 215 | 3.0 | 6.0 | 0.00 | 0.00 | 0.00 | 62 | 995.0 |
| 20260505084523 | 65 | 228 | 2.0 | 5.0 | 0.00 | 0.00 | 0.00 | 61 | 995.1 |
| 20260505084519 | 65 | 238 | 2.0 | 5.0 | 0.00 | 0.00 | 0.00 | 61 | 995.1 |
| 20260505084024 | 65 | 269 | 2.0 | 5.0 | 0.00 | 0.00 | 0.00 | 60 | 995.0 |
| 20260505084006 | 65 | 245 | 2.0 | 5.0 | 0.00 | 0.00 | 0.00 | 60 | 995.0 |
| 20260505083534 | 65 | 194 | 3.0 | 4.0 | 0.00 | 0.00 | 0.00 | 60 | 994.9 |
| 20260505083519 | 65 | 223 | 2.0 | 4.0 | 0.00 | 0.00 | 0.00 | 60 | 994.9 |
| 20260505083023 | 65 | 212 | 2.0 | 4.0 | 0.00 | 0.00 | 0.00 | 61 | 994.8 |
| 20260505083019 | 65 | 295 | 2.0 | 4.0 | 0.00 | 0.00 | 0.00 | 61 | 994.8 |
| 20260505082521 | 65 | 193 | 2.0 | 5.0 | 0.00 | 0.00 | 0.00 | 61 | 994.7 |
| 20260505082509 | 65 | 161 | 2.0 | 5.0 | 0.00 | 0.00 | 0.00 | 61 | 994.7 |
| 20260505082019 | 65 | 269 | 3.0 | 7.0 | 0.00 | 0.00 | 0.00 | 60 | 994.5 |
| 20260505082009 | 65 | 157 | 3.0 | 7.0 | 0.00 | 0.00 | 0.00 | 60 | 994.5 |
| 20260505081519 | 65 | 234 | 2.0 | 7.0 | 0.00 | 0.00 | 0.00 | 60 | 994.4 |
| 20260505081509 | 65 | 248 | 2.0 | 7.0 | 0.00 | 0.00 | 0.00 | 60 | 994.4 |
| 20260505081019 | 65 | 240 | 3.0 | 7.0 | 0.00 | 0.00 | 0.00 | 59 | 994.2 |
| 20260505081008 | 65 | 243 | 3.0 | 7.0 | 0.00 | 0.00 | 0.00 | 60 | 994.2 |
| 20260505080519 | 65 | 178 | 3.0 | 6.0 | 0.00 | 0.00 | 0.00 | 60 | 994.2 |
| 20260505080508 | 65 | 214 | 3.0 | 6.0 | 0.00 | 0.00 | 0.00 | 60 | 994.2 |
| 20260505080019 | 65 | 231 | 3.0 | 6.0 | 0.00 | 0.00 | 0.00 | 60 | 994.1 |
| 20260505080008 | 65 | 236 | 3.0 | 6.0 | 0.00 | 0.00 | 0.00 | 60 | 994.1 |
| 20260505075508 | 65 | 223 | 3.0 | 6.0 | 0.00 | 0.00 | 0.00 | 59 | 994.2 |
| 20260505075020 | 65 | 214 | 3.0 | 6.0 | 0.00 | 0.00 | 0.00 | 59 | 994.2 |
| 20260505075007 | 65 | 197 | 3.0 | 6.0 | 0.00 | 0.00 | 0.00 | 59 | 994.2 |
| 20260505074519 | 65 | 212 | 2.0 | 8.0 | 0.00 | 0.00 | 0.00 | 61 | 994.3 |
| 20260505074509 | 65 | 223 | 2.0 | 8.0 | 0.00 | 0.00 | 0.00 | 61 | 994.3 |
| 20260505074020 | 65 | 238 | 3.0 | 8.0 | 0.00 | 0.00 | 0.00 | 59 | 994.2 |
| 20260505074008 | 65 | 269 | 4.0 | 8.0 | 0.00 | 0.00 | 0.00 | 59 | 994.2 |
| 20260505073519 | 65 | 238 | 3.0 | 7.0 | 0.00 | 0.00 | 0.00 | 59 | 994.2 |
| 20260505073510 | 65 | 217 | 3.0 | 7.0 | 0.00 | 0.00 | 0.00 | 60 | 994.2 |
| 20260505073020 | 65 | 206 | 3.0 | 6.0 | 0.00 | 0.00 | 0.00 | 59 | 994.0 |
| 20260505073008 | 65 | 183 | 3.0 | 6.0 | 0.00 | 0.00 | 0.00 | 59 | 994.0 |
| 20260505072519 | 65 | 223 | 3.0 | 6.0 | 0.00 | 0.00 | 0.00 | 60 | 994.1 |
| 20260505072508 | 65 | 219 | 3.0 | 6.0 | 0.00 | 0.00 | 0.00 | 60 | 994.1 |
| 20260505072019 | 65 | 219 | 3.0 | 6.0 | 0.00 | 0.00 | 0.00 | 60 | 993.9 |
| 20260505072008 | 65 | 164 | 3.0 | 6.0 | 0.00 | 0.00 | 0.00 | 60 | 993.9 |
| 20260505071531 | 65 | 202 | 3.0 | 7.0 | 0.00 | 0.00 | 0.00 | 60 | 994.0 |
| 20260505071507 | 65 | 233 | 3.0 | 7.0 | 0.00 | 0.00 | 0.00 | 60 | 994.0 |
| 20260505071019 | 65 | 232 | 3.0 | 7.0 | 0.00 | 0.00 | 0.00 | 59 | 994.0 |
| 20260505071007 | 65 | 220 | 3.0 | 7.0 | 0.00 | 0.00 | 0.00 | 59 | 994.0 |
| 20260505070521 | 65 | 197 | 3.0 | 7.0 | 0.00 | 0.00 | 0.00 | 60 | 994.1 |
| 20260505070508 | 65 | 215 | 3.0 | 7.0 | 0.00 | 0.00 | 0.00 | 60 | 994.1 |
| 20260505070019 | 65 | 228 | 3.0 | 7.0 | 0.00 | 0.00 | 0.00 | 59 | 994.2 |
| 20260505070008 | 65 | 202 | 3.0 | 7.0 | 0.00 | 0.00 | 0.00 | 59 | 994.2 |
| 20260505065550 | 65 | 269 | 2.0 | 4.0 | 0.00 | 0.00 | 0.00 | 59 | 994.2 |
| 20260505065031 | 65 | 243 | 3.0 | 6.0 | 0.00 | 0.00 | 0.00 | 59 | 994.2 |
| 20260505065009 | 65 | 257 | 3.0 | 6.0 | 0.00 | 0.00 | 0.00 | 59 | 994.2 |
| 20260505064519 | 65 | 202 | 4.0 | 7.0 | 0.00 | 0.00 | 0.00 | 59 | 994.2 |
| 20260505064508 | 65 | 178 | 4.0 | 7.0 | 0.00 | 0.00 | 0.00 | 59 | 994.2 |
| 20260505064030 | 65 | 245 | 3.0 | 7.0 | 0.00 | 0.00 | 0.00 | 60 | 994.2 |
| 20260505063521 | 65 | 220 | 3.0 | 6.0 | 0.00 | 0.00 | 0.00 | 60 | 994.3 |
| 20260505063508 | 65 | 216 | 3.0 | 6.0 | 0.00 | 0.00 | 0.00 | 60 | 994.3 |
| 20260505063019 | 65 | 213 | 3.0 | 8.0 | 0.00 | 0.00 | 0.00 | 60 | 994.2 |
| 20260505063008 | 65 | 178 | 2.0 | 8.0 | 0.00 | 0.00 | 0.00 | 60 | 994.2 |
| 20260505062530 | 65 | 223 | 3.0 | 5.0 | 0.00 | 0.00 | 0.00 | 60 | 994.2 |
| 20260505062507 | 65 | 252 | 3.0 | 5.0 | 0.00 | 0.00 | 0.00 | 60 | 994.2 |
| 20260505062020 | 65 | 223 | 2.0 | 5.0 | 0.00 | 0.00 | 0.00 | 61 | 994.2 |
| 20260505061519 | 66 | 226 | 3.0 | 5.0 | 0.00 | 0.00 | 0.00 | 59 | 994.1 |
| 20260505061508 | 65 | 221 | 2.0 | 5.0 | 0.00 | 0.00 | 0.00 | 59 | 994.1 |
| 20260505061019 | 66 | 221 | 2.0 | 5.0 | 0.00 | 0.00 | 0.00 | 59 | 994.1 |
| 20260505061010 | 66 | 201 | 3.0 | 5.0 | 0.00 | 0.00 | 0.00 | 59 | 994.1 |
| 20260505060524 | 66 | 206 | 3.0 | 5.0 | 0.00 | 0.00 | 0.00 | 59 | 994.1 |
| 20260505060510 | 66 | 223 | 3.0 | 5.0 | 0.00 | 0.00 | 0.00 | 59 | 994.1 |
| 20260505060022 | 66 | 210 | 3.0 | 5.0 | 0.00 | 0.00 | 0.00 | 59 | 994.0 |
| 20260505060018 | 66 | 217 | 3.0 | 5.0 | 0.00 | 0.00 | 0.00 | 59 | 994.0 |
| 20260505055519 | 66 | 215 | 3.0 | 5.0 | 0.00 | 0.00 | 0.00 | 58 | 993.9 |
| 20260505055508 | 66 | 210 | 3.0 | 5.0 | 0.00 | 0.00 | 0.00 | 58 | 993.9 |
| 20260505055020 | 66 | 229 | 3.0 | 6.0 | 0.00 | 0.00 | 0.00 | 59 | 993.8 |
| 20260505055008 | 66 | 237 | 3.0 | 6.0 | 0.00 | 0.00 | 0.00 | 59 | 993.8 |
| 20260505054530 | 66 | 234 | 3.0 | 6.0 | 0.00 | 0.00 | 0.00 | 59 | 993.8 |
| 20260505054019 | 66 | 206 | 3.0 | 7.0 | 0.00 | 0.00 | 0.00 | 59 | 993.7 |
| 20260505054008 | 66 | 223 | 3.0 | 7.0 | 0.00 | 0.00 | 0.00 | 59 | 993.7 |
| 20260505053519 | 66 | 215 | 3.0 | 7.0 | 0.00 | 0.00 | 0.00 | 59 | 993.7 |
| 20260505053508 | 66 | 209 | 4.0 | 7.0 | 0.00 | 0.00 | 0.00 | 59 | 993.7 |
| 20260505053020 | 66 | 211 | 3.0 | 6.0 | 0.00 | 0.00 | 0.00 | 59 | 993.7 |
| 20260505053008 | 66 | 217 | 3.0 | 6.0 | 0.00 | 0.00 | 0.00 | 59 | 993.7 |
| 20260505052506 | 66 | 191 | 3.0 | 5.0 | 0.00 | 0.00 | 0.00 | 59 | 993.7 |
| 20260505052019 | 66 | 223 | 3.0 | 5.0 | 0.00 | 0.00 | 0.00 | 59 | 993.7 |
| 20260505052009 | 66 | 230 | 3.0 | 5.0 | 0.00 | 0.00 | 0.00 | 59 | 993.7 |
| 20260505051519 | 66 | 217 | 2.0 | 4.0 | 0.00 | 0.00 | 0.00 | 59 | 993.8 |
| 20260505051508 | 66 | 213 | 2.0 | 4.0 | 0.00 | 0.00 | 0.00 | 60 | 993.8 |
| 20260505051019 | 66 | 206 | 3.0 | 4.0 | 0.00 | 0.00 | 0.00 | 59 | 993.8 |
| 20260505051007 | 66 | 214 | 3.0 | 4.0 | 0.00 | 0.00 | 0.00 | 59 | 993.8 |
| 20260505050529 | 66 | 220 | 3.0 | 4.0 | 0.00 | 0.00 | 0.00 | 59 | 993.8 |
| 20260505041519 | 67 | 186 | 3.0 | 5.0 | 0.00 | 0.00 | 0.00 | 59 | 994.3 |
| 20260505041508 | 67 | 197 | 3.0 | 5.0 | 0.00 | 0.00 | 0.00 | 59 | 994.3 |
| 20260505041007 | 67 | 213 | 2.0 | 4.0 | 0.00 | 0.00 | 0.00 | 60 | 994.3 |
| 20260505040530 | 67 | 206 | 2.0 | 6.0 | 0.00 | 0.00 | 0.00 | 60 | 994.3 |
| 20260505040509 | 67 | 211 | 2.0 | 6.0 | 0.00 | 0.00 | 0.00 | 60 | 994.3 |
| 20260505040030 | 66 | 223 | 3.0 | 6.0 | 0.00 | 0.00 | 0.00 | 60 | 994.4 |
| 20260505040009 | 66 | 227 | 3.0 | 6.0 | 0.00 | 0.00 | 0.00 | 60 | 994.4 |
| 20260505035519 | 66 | 238 | 2.0 | 4.0 | 0.00 | 0.00 | 0.00 | 61 | 994.4 |
| 20260505035507 | 66 | 223 | 2.0 | 4.0 | 0.00 | 0.00 | 0.00 | 61 | 994.4 |
| 20260505035030 | 66 | 238 | 2.0 | 4.0 | 0.00 | 0.00 | 0.00 | 60 | 994.3 |
| 20260505035007 | 66 | 201 | 2.0 | 4.0 | 0.00 | 0.00 | 0.00 | 60 | 994.3 |
| 20260505034521 | 66 | 223 | 3.0 | 4.0 | 0.00 | 0.00 | 0.00 | 60 | 994.3 |
| 20260505034508 | 66 | 214 | 3.0 | 4.0 | 0.00 | 0.00 | 0.00 | 60 | 994.3 |
| 20260505034030 | 67 | 220 | 2.0 | 4.0 | 0.00 | 0.00 | 0.00 | 61 | 994.4 |
| 20260505034008 | 67 | 229 | 2.0 | 4.0 | 0.00 | 0.00 | 0.00 | 61 | 994.4 |
| 20260505033519 | 67 | 187 | 2.0 | 3.0 | 0.00 | 0.00 | 0.00 | 60 | 994.4 |
| 20260505033508 | 67 | 219 | 2.0 | 3.0 | 0.00 | 0.00 | 0.00 | 60 | 994.4 |
| 20260505033019 | 67 | 257 | 2.0 | 3.0 | 0.00 | 0.00 | 0.00 | 60 | 994.3 |
| 20260505033010 | 67 | 216 | 2.0 | 3.0 | 0.00 | 0.00 | 0.00 | 60 | 994.3 |
| 20260505032519 | 67 | 199 | 2.0 | 4.0 | 0.00 | 0.00 | 0.00 | 60 | 994.4 |
| 20260505032507 | 67 | 240 | 2.0 | 4.0 | 0.00 | 0.00 | 0.00 | 60 | 994.4 |
| 20260505032030 | 67 | 202 | 2.0 | 4.0 | 0.00 | 0.00 | 0.00 | 60 | 994.3 |
| 20260505032008 | 67 | 211 | 2.0 | 4.0 | 0.00 | 0.00 | 0.00 | 60 | 994.3 |
| 20260505031519 | 67 | 202 | 2.0 | 3.0 | 0.00 | 0.00 | 0.00 | 60 | 994.3 |
| 20260505031508 | 67 | 209 | 2.0 | 3.0 | 0.00 | 0.00 | 0.00 | 60 | 994.3 |
| 20260505031020 | 67 | 216 | 2.0 | 4.0 | 0.00 | 0.00 | 0.00 | 60 | 994.2 |
| 20260505031007 | 67 | 209 | 2.0 | 4.0 | 0.00 | 0.00 | 0.00 | 60 | 994.2 |
| 20260505030520 | 67 | 206 | 2.0 | 4.0 | 0.00 | 0.00 | 0.00 | 60 | 994.2 |
| 20260505030042 | 67 | 206 | 2.0 | 4.0 | 0.00 | 0.00 | 0.00 | 60 | 994.2 |
| 20260505030011 | 67 | 213 | 2.0 | 4.0 | 0.00 | 0.00 | 0.00 | 60 | 994.2 |
| 20260505025530 | 67 | 238 | 2.0 | 5.0 | 0.00 | 0.00 | 0.00 | 59 | 994.0 |
| 20260505025507 | 67 | 195 | 2.0 | 5.0 | 0.00 | 0.00 | 0.00 | 59 | 994.0 |
| 20260505025019 | 67 | 240 | 3.0 | 5.0 | 0.00 | 0.00 | 0.00 | 59 | 994.0 |
| 20260505024519 | 67 | 213 | 2.0 | 4.0 | 0.00 | 0.00 | 0.00 | 60 | 993.9 |
| 20260505024019 | 67 | 223 | 2.0 | 4.0 | 0.00 | 0.00 | 0.00 | 60 | 993.9 |
| 20260505023521 | 68 | 236 | 2.0 | 4.0 | 0.00 | 0.00 | 0.00 | 60 | 993.9 |
| 20260505023020 | 68 | 195 | 2.0 | 4.0 | 0.00 | 0.00 | 0.00 | 59 | 993.8 |
| 20260505022519 | 68 | 178 | 2.0 | 3.0 | 0.00 | 0.00 | 0.00 | 59 | 993.7 |
| 20260505022020 | 68 | 201 | 2.0 | 3.0 | 0.00 | 0.00 | 0.00 | 59 | 993.6 |
| 20260505021519 | 68 | 218 | 2.0 | 3.0 | 0.00 | 0.00 | 0.00 | 59 | 993.6 |
| 20260505021021 | 68 | 216 | 2.0 | 3.0 | 0.00 | 0.00 | 0.00 | 58 | 993.5 |
| 20260505020521 | 68 | 216 | 2.0 | 4.0 | 0.00 | 0.00 | 0.00 | 59 | 993.4 |
| 20260505020019 | 68 | 234 | 2.0 | 4.0 | 0.00 | 0.00 | 0.00 | 59 | 993.3 |
| 20260505015520 | 68 | 238 | 2.0 | 3.0 | 0.00 | 0.00 | 0.00 | 58 | 993.2 |
| 20260505015031 | 69 | 234 | 2.0 | 4.0 | 0.00 | 0.00 | 0.00 | 58 | 993.0 |
| 20260505014519 | 69 | 206 | 2.0 | 3.0 | 0.00 | 0.00 | 0.00 | 57 | 993.0 |
| 20260505014030 | 69 | 223 | 2.0 | 4.0 | 0.00 | 0.00 | 0.00 | 57 | 993.0 |
| 20260505013531 | 69 | 234 | 2.0 | 4.0 | 0.00 | 0.00 | 0.00 | 57 | 993.0 |
| 20260505013019 | 69 | 213 | 2.0 | 4.0 | 0.00 | 0.00 | 0.00 | 57 | 993.0 |
| 20260505012532 | 69 | 165 | 2.0 | 4.0 | 0.00 | 0.00 | 0.00 | 57 | 992.9 |
| 20260505012019 | 69 | 206 | 1.0 | 4.0 | 0.00 | 0.00 | 0.00 | 58 | 992.9 |
| 20260505011521 | 70 | 223 | 2.0 | 4.0 | 0.00 | 0.00 | 0.00 | 57 | 992.9 |
| 20260505011019 | 70 | 216 | 2.0 | 4.0 | 0.00 | 0.00 | 0.00 | 56 | 992.9 |
| 20260505010520 | 70 | 206 | 2.0 | 3.0 | 0.00 | 0.00 | 0.00 | 57 | 992.9 |
| 20260505010019 | 70 | 216 | 2.0 | 3.0 | 0.00 | 0.00 | 0.00 | 56 | 992.8 |
| 20260505005519 | 70 | 240 | 2.0 | 3.0 | 0.00 | 0.00 | 0.00 | 56 | 992.8 |
| 20260505005020 | 71 | 213 | 2.0 | 3.0 | 0.00 | 0.00 | 0.00 | 56 | 992.8 |
| 20260505004542 | 71 | 213 | 2.0 | 3.0 | 0.00 | 0.00 | 0.00 | 56 | 992.8 |
| 20260505004019 | 71 | 223 | 2.0 | 4.0 | 0.00 | 0.00 | 0.00 | 56 | 992.8 |
| 20260505003519 | 71 | 186 | 2.0 | 5.0 | 0.00 | 0.00 | 0.00 | 55 | 992.8 |
| 20260505003020 | 71 | 203 | 2.0 | 5.0 | 0.00 | 0.00 | 0.00 | 55 | 992.9 |
| 20260505002530 | 72 | 216 | 2.0 | 5.0 | 0.00 | 0.00 | 0.00 | 55 | 992.9 |
| 20260505002019 | 72 | 226 | 3.0 | 5.0 | 0.00 | 0.00 | 0.00 | 54 | 992.9 |
| 20260505001520 | 72 | 218 | 2.0 | 4.0 | 0.00 | 0.00 | 0.00 | 54 | 993.0 |
| 20260505001035 | 72 | 216 | 3.0 | 4.0 | 0.00 | 0.00 | 0.00 | 52 | 993.0 |
| 20260505000519 | 73 | 223 | 2.0 | 5.0 | 0.00 | 0.00 | 0.00 | 53 | 993.0 |
| 20260505000019 | 73 | 213 | 3.0 | 5.0 | 0.00 | 0.00 | 0.00 | 52 | 993.1 |
| 20260504235530 | 73 | 213 | 2.0 | 5.0 | 0.00 | 0.00 | 0.00 | 52 | 993.2 |
| 20260504235020 | 73 | 231 | 2.0 | 6.0 | 0.00 | 0.00 | 0.00 | 53 | 993.2 |
| 20260504234519 | 73 | 218 | 3.0 | 5.0 | 0.00 | 0.00 | 0.00 | 52 | 993.2 |
| 20260504234020 | 73 | 219 | 2.0 | 3.0 | 0.00 | 0.00 | 0.00 | 51 | 993.3 |
| 20260504233519 | 73 | 219 | 2.0 | 4.0 | 0.00 | 0.00 | 0.00 | 50 | 993.5 |
| 20260504233019 | 73 | 210 | 2.0 | 4.0 | 0.00 | 0.00 | 0.00 | 50 | 993.6 |
| 20260504232530 | 74 | 236 | 2.0 | 6.0 | 0.00 | 0.00 | 0.00 | 50 | 993.7 |
| 20260504232019 | 74 | 223 | 2.0 | 6.0 | 0.00 | 0.00 | 0.00 | 49 | 993.7 |
| 20260504231520 | 74 | 240 | 2.0 | 5.0 | 0.00 | 0.00 | 0.00 | 50 | 993.7 |
| 20260504231030 | 74 | 269 | 2.0 | 6.0 | 0.00 | 0.00 | 0.00 | 48 | 993.8 |
| 20260504230531 | 74 | 213 | 3.0 | 6.0 | 0.00 | 0.00 | 0.00 | 49 | 993.9 |
| 20260504230019 | 74 | 168 | 3.0 | 6.0 | 0.00 | 0.00 | 0.00 | 48 | 993.9 |
| 20260504225519 | 75 | 199 | 2.0 | 7.0 | 0.00 | 0.00 | 0.00 | 48 | 993.9 |
| 20260504225019 | 75 | 209 | 3.0 | 7.0 | 0.00 | 0.00 | 0.00 | 47 | 993.9 |
| 20260504224530 | 75 | 257 | 3.0 | 8.0 | 0.00 | 0.00 | 0.00 | 47 | 993.9 |
| 20260504224019 | 75 | 240 | 4.0 | 8.0 | 0.00 | 0.00 | 0.00 | 46 | 993.9 |
| 20260504223519 | 75 | 331 | 2.0 | 8.0 | 0.00 | 0.00 | 0.00 | 47 | 994.0 |
| 20260504223025 | 75 | 226 | 4.0 | 8.0 | 0.00 | 0.00 | 0.00 | 46 | 994.0 |
| 20260504222519 | 75 | 213 | 3.0 | 7.0 | 0.00 | 0.00 | 0.00 | 47 | 994.0 |
| 20260504222019 | 76 | 250 | 3.0 | 7.0 | 0.00 | 0.00 | 0.00 | 46 | 994.1 |
| 20260504221519 | 76 | 187 | 3.0 | 6.0 | 0.00 | 0.00 | 0.00 | 46 | 994.1 |
| 20260504221019 | 76 | 201 | 3.0 | 11.0 | 0.00 | 0.00 | 0.00 | 46 | 994.0 |
| 20260504220520 | 76 | 227 | 4.0 | 11.0 | 0.00 | 0.00 | 0.00 | 46 | 994.0 |
| 20260504220019 | 76 | 197 | 4.0 | 7.0 | 0.00 | 0.00 | 0.00 | 45 | 994.0 |
| 20260504215520 | 76 | 226 | 3.0 | 7.0 | 0.00 | 0.00 | 0.00 | 47 | 994.1 |
| 20260504215019 | 76 | 213 | 4.0 | 8.0 | 0.00 | 0.00 | 0.00 | 46 | 994.1 |
| 20260504214519 | 77 | 227 | 3.0 | 8.0 | 0.00 | 0.00 | 0.00 | 48 | 994.1 |
| 20260504214019 | 77 | 233 | 4.0 | 10.0 | 0.00 | 0.00 | 0.00 | 49 | 994.0 |
| 20260504213519 | 77 | 214 | 4.0 | 10.0 | 0.00 | 0.00 | 0.00 | 48 | 994.0 |
| 20260504213019 | 76 | 215 | 3.0 | 9.0 | 0.00 | 0.00 | 0.00 | 49 | 994.0 |
| 20260504212519 | 76 | 214 | 3.0 | 9.0 | 0.00 | 0.00 | 0.00 | 51 | 994.1 |
| 20260504212020 | 76 | 223 | 2.0 | 6.0 | 0.00 | 0.00 | 0.00 | 48 | 994.2 |
| 20260504211519 | 76 | 245 | 2.0 | 6.0 | 0.00 | 0.00 | 0.00 | 49 | 994.3 |
| 20260504211019 | 76 | 309 | 2.0 | 6.0 | 0.00 | 0.00 | 0.00 | 50 | 994.4 |
| 20260504210530 | 76 | 234 | 2.0 | 10.0 | 0.00 | 0.00 | 0.00 | 50 | 994.4 |
| 20260504210020 | 76 | 208 | 5.0 | 10.0 | 0.00 | 0.00 | 0.00 | 49 | 994.5 |
| 20260504205525 | 76 | 302 | 2.0 | 4.0 | 0.00 | 0.00 | 0.00 | 54 | 994.4 |
| 20260504205019 | 76 | 220 | 1.0 | 6.0 | 0.00 | 0.00 | 0.00 | 51 | 994.4 |
| 20260504204521 | 76 | 210 | 3.0 | 6.0 | 0.00 | 0.00 | 0.00 | 52 | 994.4 |
| 20260504204019 | 76 | 216 | 3.0 | 6.0 | 0.00 | 0.00 | 0.00 | 49 | 994.5 |
| 20260504203524 | 76 | 193 | 2.0 | 4.0 | 0.00 | 0.00 | 0.00 | 53 | 994.5 |
| 20260504203033 | 75 | 216 | 1.0 | 5.0 | 0.00 | 0.00 | 0.00 | 54 | 994.6 |
| 20260504202520 | 75 | 1 | 2.0 | 5.0 | 0.00 | 0.00 | 0.00 | 52 | 994.7 |
| 20260504202030 | 75 | 46 | 2.0 | 3.0 | 0.00 | 0.00 | 0.00 | 55 | 994.8 |
| 20260504201521 | 75 | 231 | 1.0 | 4.0 | 0.00 | 0.00 | 0.00 | 54 | 994.9 |
| 20260504201019 | 75 | 340 | 2.0 | 4.0 | 0.00 | 0.00 | 0.00 | 54 | 994.9 |
| 20260504200519 | 75 | 269 | 1.0 | 5.0 | 0.00 | 0.00 | 0.00 | 53 | 995.1 |
| 20260504200030 | 75 | 305 | 2.0 | 5.0 | 0.00 | 0.00 | 0.00 | 53 | 995.2 |
| 20260504195519 | 75 | 220 | 2.0 | 5.0 | 0.00 | 0.00 | 0.00 | 51 | 995.3 |
| 20260504195019 | 75 | 253 | 1.0 | 4.0 | 0.00 | 0.00 | 0.00 | 55 | 995.4 |
| 20260504194520 | 76 | 240 | 1.0 | 5.0 | 0.00 | 0.00 | 0.00 | 55 | 995.4 |
| 20260504194019 | 76 | 190 | 2.0 | 5.0 | 0.00 | 0.00 | 0.00 | 54 | 995.5 |
| 20260504193520 | 76 | 212 | 2.0 | 5.0 | 0.00 | 0.00 | 0.00 | 53 | 995.6 |
| 20260504193019 | 76 | 219 | 3.0 | 6.0 | 0.00 | 0.00 | 0.00 | 56 | 995.6 |
| 20260504192534 | 76 | 237 | 3.0 | 6.0 | 0.00 | 0.00 | 0.00 | 54 | 995.6 |
| 20260504192031 | 75 | 340 | 3.0 | 6.0 | 0.00 | 0.00 | 0.00 | 55 | 995.7 |
| 20260504191520 | 75 | 214 | 4.0 | 6.0 | 0.00 | 0.00 | 0.00 | 56 | 995.7 |
| 20260504191019 | 74 | 269 | 2.0 | 4.0 | 0.00 | 0.00 | 0.00 | 58 | 995.9 |
| 20260504190530 | 74 | 1 | 2.0 | 5.0 | 0.00 | 0.00 | 0.00 | 58 | 996.0 |
| 20260504190020 | 73 | 245 | 2.0 | 9.0 | 0.00 | 0.00 | 0.00 | 59 | 996.0 |
| 20260504185520 | 73 | 214 | 3.0 | 9.0 | 0.00 | 0.00 | 0.00 | 61 | 996.0 |
| 20260504185019 | 72 | 189 | 2.0 | 4.0 | 0.00 | 0.00 | 0.00 | 62 | 996.1 |
| 20260504184520 | 72 | 165 | 1.0 | 5.0 | 0.00 | 0.00 | 0.00 | 60 | 996.2 |
| 20260504184031 | 72 | 178 | 2.0 | 5.0 | 0.00 | 0.00 | 0.00 | 62 | 996.2 |
| 20260504183519 | 72 | 195 | 2.0 | 4.0 | 0.00 | 0.00 | 0.00 | 61 | 996.3 |
| 20260504183019 | 71 | 279 | 1.0 | 5.0 | 0.00 | 0.00 | 0.00 | 59 | 996.3 |
| 20260504182520 | 71 | 226 | 2.0 | 5.0 | 0.00 | 0.00 | 0.00 | 60 | 996.2 |
| 20260504182019 | 71 | 223 | 2.0 | 6.0 | 0.00 | 0.00 | 0.00 | 61 | 996.2 |
| 20260504181530 | 71 | 331 | 2.0 | 6.0 | 0.00 | 0.00 | 0.00 | 61 | 996.0 |
| 20260504181030 | 70 | 240 | 2.0 | 5.0 | 0.00 | 0.00 | 0.00 | 63 | 996.0 |
| 20260504180524 | 70 | 258 | 2.0 | 9.0 | 0.00 | 0.00 | 0.00 | 62 | 996.0 |
| 20260504180020 | 70 | 258 | 1.0 | 10.0 | 0.00 | 0.00 | 0.00 | 63 | 995.9 |
| 20260504175520 | 69 | 223 | 3.0 | 10.0 | 0.00 | 0.00 | 0.00 | 61 | 995.8 |
| 20260504175020 | 69 | 220 | 5.0 | 9.0 | 0.00 | 0.00 | 0.00 | 61 | 995.8 |
| 20260504174519 | 69 | 188 | 4.0 | 9.0 | 0.00 | 0.00 | 0.00 | 63 | 995.9 |
| 20260504174019 | 68 | 239 | 4.0 | 9.0 | 0.00 | 0.00 | 0.00 | 62 | 996.0 |
| 20260504173519 | 68 | 215 | 5.0 | 10.0 | 0.00 | 0.00 | 0.00 | 63 | 996.0 |
| 20260504173019 | 67 | 204 | 3.0 | 6.0 | 0.00 | 0.00 | 0.00 | 64 | 996.1 |
| 20260504172520 | 67 | 229 | 2.0 | 6.0 | 0.00 | 0.00 | 0.00 | 65 | 996.1 |
| 20260504172019 | 67 | 253 | 3.0 | 7.0 | 0.00 | 0.00 | 0.00 | 64 | 996.1 |
| 20260504171520 | 67 | 235 | 4.0 | 7.0 | 0.00 | 0.00 | 0.00 | 64 | 996.1 |
| 20260504171020 | 67 | 221 | 4.0 | 8.0 | 0.00 | 0.00 | 0.00 | 63 | 996.0 |
| 20260504170519 | 67 | 231 | 3.0 | 8.0 | 0.00 | 0.00 | 0.00 | 65 | 996.0 |
| 20260504151019 | 65 | 223 | 2.0 | 4.0 | 0.00 | 0.00 | 0.00 | 65 | 996.7 |
| 20260504150519 | 65 | 209 | 2.0 | 3.0 | 0.00 | 0.00 | 0.00 | 64 | 996.7 |
| 20260504141019 | 61 | 172 | 3.0 | 7.0 | 0.00 | 0.00 | 0.00 | 68 | 996.5 |
| 20260504140519 | 61 | 269 | 2.0 | 4.0 | 0.00 | 0.00 | 0.00 | 68 | 996.5 |
| 20260504130520 | 55 | 221 | 3.0 | 6.0 | 0.00 | 0.00 | 0.00 | 73 | 997.0 |
| 20260504110519 | 53 | 230 | 3.0 | 4.0 | 0.00 | 0.00 | 0.00 | 69 | 997.1 |
| 20260504100520 | 53 | 193 | 3.0 | 5.0 | 0.00 | 0.00 | 0.00 | 67 | 997.3 |